Erie, PA

9:55 AM EST on November 17, 2019 (GMT -0500)
Erie International

Weather History for KERI - September, 2019

Change the Weather History Date:

Monday, September 16, 2019

  Actual Average Record
Temperature  
Mean Temperature 71 °F 64 °F  
Max Temperature 75 °F 72 °F 93 °F (1939)
Min Temperature 66 °F 56 °F 39 °F (1966)
Degree Days  
Heating Degree Days 0 3  
Month to date heating degree days 8 30  
Since 1 July heating degree days 9 48  
Cooling Degree Days 6 2  
Month to date cooling degree days 70 51  
Year to date cooling degree days 760 609  
Growing Degree Days 21 (Base 50)    
Moisture  
Dew Point 62 °F    
Average Humidity 76    
Maximum Humidity 81    
Minimum Humidity 67    
Precipitation  
Precipitation T in 0.16 in 1.59 in (1977)
Month to date precipitation 3.12 2.27  
Year to date precipitation 29.44 28.10  
Snow  
Snow 0.00 in 0.00 in - ()
Month to date snowfall 0.0 0.0  
Since 1 July snowfall 0.0 0.0  
Since 1 September snowfall 0.0 0.0  
Snow Depth 0.00 in    
Sea Level Pressure  
Sea Level Pressure 30.06 in    
Wind  
Wind Speed 5 mph ()    
Max Wind Speed 15 mph    
Max Gust Speed 19 mph    
Visibility 10.0 miles    
Events Rain    
T = Trace of Precipitation, MM = Missing Value Source: Averaged Metar Reports

Daily Weather History Graph

Daily Weather History Graph

Search for Another Location

Airport or City:

Astronomy

Sep. 16, 2019 Rise Set
Actual Time 7:01 AM EDT 7:28 PM EDT
Civil Twilight 6:33 AM EDT 7:56 PM EDT
Nautical Twilight 6:00 AM EDT 8:29 PM EDT
Astronomical Twilight 5:26 AM EDT 9:03 PM EDT
Moon 9:00 PM EDT (9/16) 9:08 AM EDT (9/16)
Length of Visible Light 13h 23m
Length of Day
12h 27m
Waning Gibbous, 94% of the Moon is Illuminated
Sep 16
Waning Gibbous
Sep 21
Last Quarter
Sep 28
New
Oct 5
First Quarter
Oct 13
Full

Hourly Weather History & Observations

Time (EDT) Temp. Dew Point Humidity Pressure Visibility Wind Dir Wind Speed Gust Speed Precip Events Conditions
12:51 AM 69.1 °F 60.1 °F 73% 30.06 in 10.0 mi NE 4.6 mph - N/A   Overcast
1:51 AM 68.0 °F 60.1 °F 76% 30.06 in 10.0 mi Calm Calm - N/A   Mostly Cloudy
2:51 AM 68.0 °F 60.1 °F 76% 30.04 in 10.0 mi South 4.6 mph - N/A   Overcast
3:51 AM 70.0 °F 60.1 °F 71% 30.04 in 10.0 mi South 5.8 mph - N/A   Overcast
4:51 AM 70.0 °F 61.0 °F 73% 30.04 in 10.0 mi South 3.5 mph - N/A   Overcast
5:51 AM 69.1 °F 61.0 °F 75% 30.04 in 10.0 mi Calm Calm - N/A   Overcast
6:51 AM 68.0 °F 62.1 °F 81% 30.04 in 10.0 mi Calm Calm - N/A   Overcast
7:51 AM 68.0 °F 62.1 °F 81% 30.06 in 10.0 mi Calm Calm - 0.00 in Rain Light Rain
8:51 AM 69.1 °F 62.1 °F 78% 30.08 in 10.0 mi Calm Calm - 0.00 in   Overcast
9:07 AM 69.1 °F 63.0 °F 81% 30.08 in 10.0 mi Calm Calm - N/A   Overcast
9:51 AM 71.1 °F 63.0 °F 75% 30.07 in 10.0 mi SSW 4.6 mph - N/A   Overcast
10:51 AM 72.0 °F 63.0 °F 73% 30.07 in 10.0 mi WNW 5.8 mph - N/A   Overcast
11:51 AM 73.0 °F 64.9 °F 76% 30.07 in 10.0 mi North 9.2 mph - N/A   Overcast
12:51 PM 73.0 °F 64.0 °F 73% 30.06 in 10.0 mi NNE 4.6 mph - N/A   Overcast
1:51 PM 75.9 °F 64.0 °F 67% 30.06 in 10.0 mi North 9.2 mph - N/A   Clear
2:51 PM 75.0 °F 64.0 °F 69% 30.06 in 10.0 mi NNE 11.5 mph - N/A   Clear
3:51 PM 73.9 °F 64.0 °F 71% 30.05 in 10.0 mi NNE 12.7 mph - N/A   Partly Cloudy
4:51 PM 73.0 °F 63.0 °F 71% 30.05 in 10.0 mi NE 12.7 mph - N/A   Clear
5:51 PM 72.0 °F 64.0 °F 76% 30.06 in 10.0 mi NNE 11.5 mph - N/A   Partly Cloudy
6:51 PM 70.0 °F 63.0 °F 78% 30.07 in 10.0 mi NE 9.2 mph - N/A   Partly Cloudy
7:51 PM 69.1 °F 63.0 °F 81% 30.07 in 10.0 mi ENE 8.1 mph - N/A   Scattered Clouds
8:32 PM 69.1 °F 63.0 °F 81% 30.08 in 10.0 mi NE 10.4 mph - N/A   Mostly Cloudy
8:51 PM 69.1 °F 63.0 °F 81% 30.08 in 10.0 mi NE 12.7 mph - N/A   Mostly Cloudy
9:51 PM 68.0 °F 62.1 °F 81% 30.09 in 10.0 mi NE 12.7 mph - N/A   Overcast
10:51 PM 68.0 °F 61.0 °F 78% 30.10 in 10.0 mi NE 10.4 mph - N/A   Overcast
11:51 PM 66.9 °F 61.0 °F 81% 30.11 in 10.0 mi ENE 12.7 mph - N/A   Mostly Cloudy